Burley, ID

1:26 AM MST on November 14, 2019 (GMT -0700)
Burley Municipal

Weather History for KBYI - August, 2019

Change the Weather History Date:

Sunday, August 18, 2019

  Actual Average Record
Temperature  
Mean Temperature 70 °F 68 °F  
Max Temperature 90 °F 85 °F 99 °F (1932)
Min Temperature 50 °F 51 °F 35 °F (1978)
Degree Days  
Heating Degree Days 0 1  
Month to date heating degree days 4 11  
Since 1 June heating degree days 128 167  
Since 1 July heating degree days 12 33  
Cooling Degree Days 5 4  
Month to date cooling degree days 106 93  
Year to date cooling degree days 316 306  
Since 1 June cooling degree days 316 300  
Growing Degree Days 20 (Base 50)    
Moisture  
Dew Point 42 °F    
Average Humidity 41    
Maximum Humidity 66    
Minimum Humidity 15    
Precipitation  
Precipitation 0.00 in 0.01 in 0.36 in (1955)
Month to date precipitation 0.09 0.21  
Year to date precipitation 8.21 6.57  
Sea Level Pressure  
Sea Level Pressure 29.82 in    
Wind  
Wind Speed 5 mph (WSW)    
Max Wind Speed 15 mph    
Max Gust Speed 17 mph    
Visibility 9 miles    
Events      
T = Trace of Precipitation, MM = Missing Value Source: NWS Daily Summary

Daily Weather History Graph

Daily Weather History Graph

Search for Another Location

Airport or City:

Astronomy

Aug. 18, 2019 Rise Set
Actual Time 6:44 AM MDT 8:32 PM MDT
Civil Twilight 6:14 AM MDT 9:02 PM MDT
Nautical Twilight 5:38 AM MDT 9:38 PM MDT
Astronomical Twilight 4:58 AM MDT 10:18 PM MDT
Moon 10:25 PM MDT (8/18) 9:36 AM MDT (8/18)
Length of Visible Light 14h 47m
Length of Day
13h 47m
Waning Gibbous, 91% of the Moon is Illuminated
Aug 18
Waning Gibbous
Aug 23
Last Quarter
Aug 30
New
Sep 5
First Quarter
Sep 13
Full

Hourly Weather History & Observations

Time (MDT) Temp. Dew Point Humidity Pressure Visibility Wind Dir Wind Speed Gust Speed Precip Events Conditions
12:53 AM 55.9 °F 42.1 °F 60% 29.80 in 10.0 mi SW 6.9 mph - N/A   Clear
1:53 AM 54.0 °F 42.1 °F 64% 29.80 in 10.0 mi SSW 8.1 mph - N/A   Clear
2:53 AM 55.0 °F 41.0 °F 59% 29.78 in 10.0 mi SW 9.2 mph - N/A   Clear
3:53 AM 55.9 °F 39.9 °F 55% 29.79 in 10.0 mi SSW 10.4 mph - N/A   Clear
4:53 AM 55.9 °F 39.9 °F 55% 29.79 in 10.0 mi SW 10.4 mph - N/A   Clear
5:53 AM 54.0 °F 39.9 °F 59% 29.81 in 10.0 mi SW 8.1 mph - N/A   Clear
6:53 AM 51.1 °F 39.9 °F 66% 29.85 in 10.0 mi SSW 4.6 mph - N/A   Clear
7:53 AM 57.9 °F 43.0 °F 58% 29.85 in 10.0 mi SSW 4.6 mph - N/A   Clear
8:53 AM 64.9 °F 45.0 °F 48% 29.86 in 10.0 mi SW 5.8 mph - N/A   Clear
9:13 AM 66.9 °F 45.0 °F 45% 29.97 in 3.0 mi WSW 4.6 mph - N/A   Haze
9:28 AM 69.1 °F 43.0 °F 39% 29.98 in 2.5 mi Calm Calm - N/A   Haze
9:35 AM 71.1 °F 44.1 °F 38% 29.98 in 4.0 mi Variable 3.5 mph - N/A   Haze
9:44 AM 71.1 °F 42.1 °F 35% 29.97 in 10.0 mi WNW 5.8 mph - N/A   Clear
9:53 AM 71.1 °F 44.1 °F 38% 29.87 in 10.0 mi NW 4.6 mph - N/A   Clear
10:53 AM 75.9 °F 48.0 °F 37% 29.87 in 10.0 mi North 4.6 mph - N/A   Clear
11:53 AM 80.1 °F 39.9 °F 24% 29.86 in 10.0 mi Calm Calm - N/A   Clear
12:53 PM 82.9 °F 39.9 °F 22% 29.85 in 10.0 mi Variable 3.5 mph - N/A   Clear
1:53 PM 86.0 °F 37.9 °F 18% 29.83 in 10.0 mi NW 6.9 mph - N/A   Clear
2:53 PM 87.1 °F 37.9 °F 18% 29.81 in 10.0 mi Variable 3.5 mph - N/A   Clear
3:53 PM 88.0 °F 36.0 °F 16% 29.78 in 10.0 mi Calm Calm - N/A   Clear
4:53 PM 89.1 °F 35.1 °F 15% 29.75 in 10.0 mi NNW 8.1 mph - N/A   Clear
5:53 PM 89.1 °F 37.0 °F 16% 29.74 in 10.0 mi Variable 3.5 mph - N/A   Clear
6:53 PM 86.0 °F 39.0 °F 19% 29.75 in 10.0 mi North 5.8 mph - N/A   Clear
7:53 PM 82.9 °F 42.1 °F 24% 29.73 in 10.0 mi East 5.8 mph - N/A   Clear
8:53 PM 73.9 °F 46.9 °F 38% 29.74 in 10.0 mi Calm Calm - N/A   Clear
9:53 PM 68.0 °F 48.9 °F 50% 29.75 in 10.0 mi Calm Calm - N/A   Clear
10:53 PM 64.9 °F 48.9 °F 56% 29.75 in 10.0 mi SSE 5.8 mph - N/A   Clear
11:53 PM 63.0 °F 48.9 °F 60% 29.76 in 10.0 mi Calm Calm - N/A   Clear